| time (UTC) | temp F | wind direction | speed MPH | gust MPH | rain 1hr in | rain 24hr in | rain mn in | humidity % | barometer mb |
| 20260502164004 | 58 | 16 | 2.0 | 5.0 | 0.00 | 0.00 | 0.00 | 39 | 1014.5 |
| 20260502163003 | 58 | 63 | 2.0 | 5.0 | 0.00 | 0.00 | 0.00 | 36 | 1014.7 |
| 20260502161003 | 58 | 153 | 1.0 | 5.0 | 0.00 | 0.00 | 0.00 | 42 | 1014.9 |
| 20260502151005 | 54 | 59 | 3.0 | 6.0 | 0.00 | 0.00 | 0.00 | 48 | 1015.2 |
| 20260502123004 | 50 | 42 | 2.0 | 5.0 | 0.00 | 0.00 | 0.00 | 58 | 1015.4 |
| 20260502122004 | 50 | 238 | 2.0 | 8.0 | 0.00 | 0.00 | 0.00 | 58 | 1015.2 |
| 20260502121005 | 50 | 247 | 0.0 | 8.0 | 0.00 | 0.00 | 0.00 | 58 | 1015.3 |
| 20260502115005 | 50 | 304 | 1.0 | 8.0 | 0.00 | 0.00 | 0.00 | 60 | 1014.9 |
| 20260502114004 | 50 | 187 | 0.0 | 4.0 | 0.00 | 0.00 | 0.00 | 61 | 1015.0 |
| 20260502113005 | 50 | 162 | 0.0 | 4.0 | 0.00 | 0.00 | 0.00 | 61 | 1014.8 |
| 20260502112004 | 50 | 88 | 2.0 | 7.0 | 0.00 | 0.00 | 0.00 | 60 | 1014.8 |
| 20260502110005 | 50 | 51 | 2.0 | 7.0 | 0.00 | 0.00 | 0.00 | 60 | 1014.9 |
| 20260502104004 | 50 | 185 | 0.0 | 1.0 | 0.00 | 0.00 | 0.00 | 60 | 1014.6 |
| 20260502103004 | 50 | 184 | 0.0 | 4.0 | 0.00 | 0.00 | 0.00 | 60 | 1014.3 |
| 20260502101005 | 51 | 277 | 0.0 | 5.0 | 0.00 | 0.00 | 0.00 | 61 | 1013.9 |
| 20260502091004 | 52 | 162 | 0.0 | 0.0 | 0.00 | 0.00 | 0.00 | 64 | 1013.9 |
| 20260502071004 | 52 | 162 | 0.0 | 0.0 | 0.00 | 0.00 | 0.00 | 64 | 1013.6 |
| 20260502070005 | 52 | 162 | 0.0 | 0.0 | 0.00 | 0.00 | 0.00 | 64 | 1013.6 |
| 20260502065004 | 52 | 162 | 0.0 | 2.0 | 0.00 | 0.00 | 0.00 | 65 | 1013.6 |
| 20260502064004 | 52 | 300 | 0.0 | 4.0 | 0.00 | 0.00 | 0.00 | 66 | 1013.8 |
| 20260502063004 | 52 | 49 | 0.0 | 0.0 | 0.00 | 0.00 | 0.00 | 66 | 1014.0 |
| 20260502062004 | 52 | 121 | 0.0 | 0.0 | 0.00 | 0.00 | 0.00 | 66 | 1013.9 |
| 20260502061004 | 52 | 84 | 0.0 | 0.0 | 0.00 | 0.00 | 0.00 | 65 | 1013.8 |
| 20260502060005 | 52 | 84 | 0.0 | 0.0 | 0.00 | 0.00 | 0.00 | 64 | 1014.0 |
| 20260502054005 | 52 | 84 | 0.0 | 0.0 | 0.00 | 0.00 | 0.00 | 64 | 1013.9 |
| 20260502053004 | 52 | 84 | 0.0 | 0.0 | 0.00 | 0.00 | 0.00 | 64 | 1013.9 |
| 20260502051004 | 52 | 84 | 0.0 | 0.0 | 0.00 | 0.00 | 0.00 | 64 | 1014.1 |
| 20260502050005 | 53 | 84 | 0.0 | 0.0 | 0.00 | 0.00 | 0.00 | 64 | 1014.1 |
| 20260502045004 | 53 | 84 | 0.0 | 0.0 | 0.00 | 0.00 | 0.00 | 63 | 1014.0 |
| 20260502043004 | 53 | 84 | 0.0 | 0.0 | 0.00 | 0.00 | 0.00 | 63 | 1013.9 |
| 20260502042005 | 53 | 84 | 0.0 | 0.0 | 0.00 | 0.00 | 0.00 | 64 | 1014.1 |
| 20260502041005 | 53 | 84 | 0.0 | 0.0 | 0.00 | 0.00 | 0.00 | 65 | 1014.1 |
| 20260502040004 | 53 | 84 | 0.0 | 0.0 | 0.00 | 0.00 | 0.00 | 65 | 1014.0 |
| 20260502035004 | 53 | 84 | 0.0 | 0.0 | 0.00 | 0.00 | 0.00 | 67 | 1013.9 |
| 20260502034004 | 53 | 84 | 0.0 | 0.0 | 0.00 | 0.00 | 0.00 | 67 | 1013.8 |
| 20260502033005 | 53 | 84 | 0.0 | 0.0 | 0.00 | 0.00 | 0.00 | 68 | 1013.7 |
| 20260502032004 | 53 | 84 | 0.0 | 0.0 | 0.00 | 0.00 | 0.00 | 67 | 1013.5 |
| 20260502031004 | 53 | 84 | 0.0 | 0.0 | 0.00 | 0.00 | 0.00 | 67 | 1013.5 |
| 20260502030005 | 54 | 84 | 0.0 | 0.0 | 0.00 | 0.00 | 0.00 | 67 | 1013.7 |
| 20260502025004 | 54 | 84 | 0.0 | 0.0 | 0.00 | 0.00 | 0.00 | 66 | 1013.6 |
| 20260502023005 | 54 | 84 | 0.0 | 0.0 | 0.00 | 0.00 | 0.00 | 66 | 1013.6 |
| 20260502022004 | 54 | 84 | 0.0 | 0.0 | 0.00 | 0.00 | 0.00 | 65 | 1013.9 |
| 20260502021004 | 54 | 84 | 0.0 | 0.0 | 0.00 | 0.00 | 0.00 | 65 | 1014.1 |
| 20260502020005 | 54 | 84 | 0.0 | 2.0 | 0.00 | 0.00 | 0.00 | 65 | 1013.8 |
| 20260502015004 | 54 | 85 | 0.0 | 0.0 | 0.00 | 0.00 | 0.00 | 64 | 1013.8 |
| 20260502014004 | 54 | 85 | 0.0 | 2.0 | 0.00 | 0.00 | 0.00 | 63 | 1013.9 |
| 20260502013004 | 55 | 85 | 0.0 | 1.0 | 0.00 | 0.00 | 0.00 | 61 | 1013.8 |
| 20260502011004 | 55 | 85 | 0.0 | 0.0 | 0.00 | 0.00 | 0.00 | 59 | 1013.5 |
| 20260502005005 | 56 | 85 | 0.0 | 2.0 | 0.00 | 0.00 | 0.00 | 58 | 1013.5 |
| 20260502004005 | 57 | 85 | 1.0 | 2.0 | 0.00 | 0.00 | 0.00 | 56 | 1013.4 |
| 20260502003004 | 57 | 88 | 1.0 | 2.0 | 0.00 | 0.00 | 0.00 | 54 | 1013.2 |
| 20260502002004 | 58 | 88 | 0.0 | 4.0 | 0.00 | 0.00 | 0.00 | 52 | 1012.9 |
| 20260502001005 | 59 | 117 | 0.0 | 2.0 | 0.00 | 0.00 | 0.00 | 49 | 1012.8 |
| 20260501235004 | 60 | 120 | 0.0 | 4.0 | 0.00 | 0.00 | 0.00 | 42 | 1012.8 |
| 20260501234004 | 60 | 88 | 0.0 | 0.0 | 0.00 | 0.00 | 0.00 | 38 | 1012.9 |
| 20260501233004 | 61 | 88 | 0.0 | 0.0 | 0.00 | 0.00 | 0.00 | 38 | 1013.0 |
| 20260501232005 | 62 | 86 | 0.0 | 0.0 | 0.00 | 0.00 | 0.00 | 37 | 1012.8 |
| 20260501231004 | 62 | 86 | 1.0 | 4.0 | 0.00 | 0.00 | 0.00 | 33 | 1012.7 |
| 20260501230004 | 62 | 76 | 0.0 | 6.0 | 0.00 | 0.00 | 0.00 | 29 | 1012.6 |
| 20260501225004 | 63 | 108 | 1.0 | 5.0 | 0.00 | 0.00 | 0.00 | 32 | 1012.5 |
| 20260501224004 | 63 | 324 | 0.0 | 6.0 | 0.00 | 0.00 | 0.00 | 29 | 1012.5 |
| 20260501223004 | 63 | 130 | 2.0 | 3.0 | 0.00 | 0.00 | 0.00 | 29 | 1012.7 |
| 20260501222004 | 64 | 40 | 2.0 | 7.0 | 0.00 | 0.00 | 0.00 | 27 | 1012.8 |
| 20260501221004 | 64 | 125 | 2.0 | 6.0 | 0.00 | 0.00 | 0.00 | 27 | 1012.9 |
| 20260501215004 | 64 | 114 | 0.0 | 8.0 | 0.00 | 0.00 | 0.00 | 30 | 1012.8 |
| 20260501214004 | 64 | 121 | 1.0 | 8.0 | 0.00 | 0.00 | 0.00 | 30 | 1012.8 |
| 20260501213004 | 64 | 296 | 5.0 | 7.0 | 0.00 | 0.00 | 0.00 | 27 | 1012.8 |
| 20260501212004 | 65 | 270 | 2.0 | 7.0 | 0.00 | 0.00 | 0.00 | 27 | 1012.8 |
| 20260501211005 | 65 | 325 | 2.0 | 8.0 | 0.00 | 0.00 | 0.00 | 27 | 1012.8 |
| 20260501210004 | 65 | 77 | 2.0 | 6.0 | 0.00 | 0.00 | 0.00 | 28 | 1012.9 |
| 20260501205004 | 65 | 56 | 1.0 | 6.0 | 0.00 | 0.00 | 0.00 | 34 | 1013.0 |
| 20260501204004 | 65 | 121 | 6.0 | 7.0 | 0.00 | 0.00 | 0.00 | 27 | 1013.0 |
| 20260501203005 | 65 | 128 | 1.0 | 8.0 | 0.00 | 0.00 | 0.00 | 27 | 1013.1 |
| 20260501202004 | 65 | 116 | 0.0 | 6.0 | 0.00 | 0.00 | 0.00 | 29 | 1013.1 |
| 20260501201004 | 65 | 107 | 4.0 | 10.0 | 0.00 | 0.00 | 0.00 | 30 | 1013.2 |
| 20260501200005 | 65 | 284 | 1.0 | 7.0 | 0.00 | 0.00 | 0.00 | 30 | 1013.4 |
| 20260501195004 | 64 | 298 | 1.0 | 9.0 | 0.00 | 0.00 | 0.00 | 27 | 1013.6 |
| 20260501193005 | 64 | 55 | 0.0 | 6.0 | 0.00 | 0.00 | 0.00 | 28 | 1013.8 |
| 20260501191004 | 64 | 219 | 4.0 | 12.0 | 0.00 | 0.00 | 0.00 | 30 | 1014.0 |
| 20260501190005 | 64 | 29 | 1.0 | 7.0 | 0.00 | 0.00 | 0.00 | 28 | 1014.0 |
| 20260501185004 | 64 | 265 | 2.0 | 8.0 | 0.00 | 0.00 | 0.00 | 28 | 1014.1 |
| 20260501184004 | 64 | 117 | 6.0 | 7.0 | 0.00 | 0.00 | 0.00 | 27 | 1014.2 |
| 20260501183004 | 64 | 55 | 1.0 | 5.0 | 0.00 | 0.00 | 0.00 | 31 | 1014.3 |
| 20260501182004 | 64 | 113 | 5.0 | 5.0 | 0.00 | 0.00 | 0.00 | 28 | 1014.4 |
| 20260501181005 | 64 | 13 | 1.0 | 7.0 | 0.00 | 0.00 | 0.00 | 29 | 1014.5 |
| 20260501180005 | 65 | 242 | 0.0 | 5.0 | 0.00 | 0.00 | 0.00 | 27 | 1014.3 |
| 20260501175005 | 64 | 161 | 0.0 | 5.0 | 0.00 | 0.00 | 0.00 | 33 | 1014.3 |
| 20260501174004 | 64 | 22 | 2.0 | 7.0 | 0.00 | 0.00 | 0.00 | 26 | 1014.4 |
| 20260501172004 | 62 | 26 | 2.0 | 7.0 | 0.00 | 0.00 | 0.00 | 26 | 1014.6 |
| 20260501171004 | 63 | 49 | 0.0 | 4.0 | 0.00 | 0.00 | 0.00 | 28 | 1014.8 |
| 20260501170005 | 62 | 65 | 0.0 | 5.0 | 0.00 | 0.00 | 0.00 | 31 | 1014.8 |